Time,TemperatureF,DewpointF,PressureIn,WindDirection,WindDirectionDegrees,WindSpeedMPH,WindSpeedGustMPH,Humidity,HourlyPrecipIn,Conditions,Clouds,dailyrainin,SoftwareType,DateUTC
2013-05-04 00:00:00,46.5,43.4,30.35,ESE,105,0.0,1.0,89,0.00,,---,0.00,VWS V14.01,2013-05-04 04:00:00,
2013-05-04 00:01:00,46.4,43.3,30.35,ESE,105,0.0,0.0,89,0.00,,---,0.00,VWS V14.01,2013-05-04 04:01:00,
2013-05-04 00:05:00,46.4,43.6,30.35,ESE,105,0.0,0.0,90,0.00,,---,0.00,VWS V14.01,2013-05-04 04:05:00,
2013-05-04 00:06:00,46.5,43.7,30.35,ESE,105,0.0,0.0,90,0.00,,---,0.00,VWS V14.01,2013-05-04 04:06:00,
2013-05-04 00:10:00,46.4,43.6,30.35,ESE,105,0.0,1.0,90,0.00,,---,0.00,VWS V14.01,2013-05-04 04:10:00,
2013-05-04 00:11:00,46.5,43.7,30.35,ESE,105,0.0,1.0,90,0.00,,---,0.00,VWS V14.01,2013-05-04 04:11:00,
2013-05-04 00:15:00,46.4,43.6,30.35,ESE,105,0.0,1.0,90,0.00,,---,0.00,VWS V14.01,2013-05-04 04:15:00,
2013-05-04 00:16:00,46.4,43.6,30.35,ESE,105,0.0,0.0,90,0.00,,---,0.00,VWS V14.01,2013-05-04 04:16:00,
2013-05-04 00:20:00,46.1,43.3,30.35,ESE,105,0.0,0.0,90,0.00,,---,0.00,VWS V14.01,2013-05-04 04:20:00,
2013-05-04 00:21:00,46.0,43.2,30.35,ESE,105,0.0,0.0,90,0.00,,---,0.00,VWS V14.01,2013-05-04 04:21:00,
2013-05-04 00:25:00,45.7,42.9,30.35,ESE,105,0.0,1.0,90,0.00,,---,0.00,VWS V14.01,2013-05-04 04:25:00,
2013-05-04 00:26:00,45.6,42.8,30.35,ESE,105,0.0,0.0,90,0.00,,---,0.00,VWS V14.01,2013-05-04 04:26:00,
2013-05-04 00:30:00,45.6,43.1,30.35,ESE,105,0.0,1.0,91,0.00,,---,0.00,VWS V14.01,2013-05-04 04:30:00,
2013-05-04 00:31:00,45.6,43.1,30.34,ESE,105,0.0,0.0,91,0.00,,---,0.00,VWS V14.01,2013-05-04 04:31:00,
2013-05-04 00:35:00,45.6,43.1,30.34,ESE,105,0.0,1.0,91,0.00,,---,0.00,VWS V14.01,2013-05-04 04:35:00,
2013-05-04 00:36:00,45.6,43.1,30.34,ESE,105,1.0,1.0,91,0.00,,---,0.00,VWS V14.01,2013-05-04 04:36:00,
2013-05-04 00:40:00,45.7,43.5,30.34,ESE,105,0.0,2.0,92,0.00,,---,0.00,VWS V14.01,2013-05-04 04:40:00,
2013-05-04 00:41:00,45.7,43.5,30.34,ESE,105,1.0,2.0,92,0.00,,---,0.00,VWS V14.01,2013-05-04 04:41:00,
2013-05-04 00:45:00,45.7,43.5,30.34,ESE,105,2.0,3.0,92,0.00,,---,0.00,VWS V14.01,2013-05-04 04:45:00,
2013-05-04 00:46:00,45.7,43.5,30.34,ESE,105,1.0,3.0,92,0.00,,---,0.00,VWS V14.01,2013-05-04 04:46:00,
2013-05-04 00:50:00,45.6,43.1,30.34,ESE,105,0.0,3.0,91,0.00,,---,0.00,VWS V14.01,2013-05-04 04:50:00,
2013-05-04 00:51:00,45.6,43.4,30.34,ESE,105,0.0,0.0,92,0.00,,---,0.00,VWS V14.01,2013-05-04 04:51:00,
2013-05-04 00:55:00,45.6,43.4,30.34,ESE,105,0.0,2.0,92,0.00,,---,0.00,VWS V14.01,2013-05-04 04:55:00,
2013-05-04 00:56:00,45.6,43.4,30.34,ESE,105,0.0,1.0,92,0.00,,---,0.00,VWS V14.01,2013-05-04 04:56:00,
2013-05-04 01:00:00,45.6,43.4,30.34,ESE,105,0.0,2.0,92,0.00,,---,0.00,VWS V14.01,2013-05-04 05:00:00,
2013-05-04 01:01:00,45.6,43.4,30.34,ESE,105,0.0,1.0,92,0.00,,---,0.00,VWS V14.01,2013-05-04 05:01:00,
2013-05-04 01:05:00,45.6,43.4,30.34,ESE,105,1.0,2.0,92,0.00,,---,0.00,VWS V14.01,2013-05-04 05:05:00,
2013-05-04 01:06:00,45.6,43.4,30.34,ESE,105,0.0,2.0,92,0.00,,---,0.00,VWS V14.01,2013-05-04 05:06:00,
2013-05-04 01:10:00,45.6,43.4,30.34,ESE,105,0.0,2.0,92,0.00,,---,0.00,VWS V14.01,2013-05-04 05:10:00,
2013-05-04 01:11:00,45.6,43.4,30.34,ESE,105,0.0,1.0,92,0.00,,---,0.00,VWS V14.01,2013-05-04 05:11:00,
2013-05-04 01:15:00,45.5,43.3,30.34,ESE,105,0.0,1.0,92,0.00,,---,0.00,VWS V14.01,2013-05-04 05:15:00,
2013-05-04 01:16:00,45.5,43.3,30.33,ESE,105,0.0,0.0,92,0.00,,---,0.00,VWS V14.01,2013-05-04 05:16:00,
2013-05-04 01:20:00,45.4,43.2,30.33,ESE,105,0.0,1.0,92,0.00,,---,0.00,VWS V14.01,2013-05-04 05:20:00,
2013-05-04 01:21:00,45.4,43.2,30.33,ESE,105,0.0,0.0,92,0.00,,---,0.00,VWS V14.01,2013-05-04 05:21:00,
2013-05-04 01:25:00,45.4,43.2,30.33,ESE,105,0.0,0.0,92,0.00,,---,0.00,VWS V14.01,2013-05-04 05:25:00,
2013-05-04 01:26:00,45.4,43.2,30.33,ESE,105,0.0,2.0,92,0.00,,---,0.00,VWS V14.01,2013-05-04 05:26:00,
2013-05-04 01:30:00,45.3,43.1,30.33,ESE,105,1.0,2.0,92,0.00,,---,0.00,VWS V14.01,2013-05-04 05:30:00,
2013-05-04 01:31:00,45.4,43.2,30.33,ESE,105,0.0,1.0,92,0.00,,---,0.00,VWS V14.01,2013-05-04 05:31:00,
2013-05-04 01:35:00,45.3,43.1,30.33,ESE,105,0.0,1.0,92,0.00,,---,0.00,VWS V14.01,2013-05-04 05:35:00,
2013-05-04 01:36:00,45.3,43.1,30.33,ESE,105,0.0,0.0,92,0.00,,---,0.00,VWS V14.01,2013-05-04 05:36:00,
2013-05-04 01:40:00,45.4,43.2,30.33,ESE,105,0.0,1.0,92,0.00,,---,0.00,VWS V14.01,2013-05-04 05:40:00,
2013-05-04 01:41:00,45.4,43.2,30.32,ESE,105,0.0,2.0,92,0.00,,---,0.00,VWS V14.01,2013-05-04 05:41:00,
2013-05-04 01:45:00,45.5,43.3,30.32,ESE,105,0.0,2.0,92,0.00,,---,0.00,VWS V14.01,2013-05-04 05:45:00,
2013-05-04 01:46:00,45.5,43.3,30.32,ESE,105,0.0,1.0,92,0.00,,---,0.00,VWS V14.01,2013-05-04 05:46:00,
2013-05-04 01:50:00,45.5,43.3,30.32,ESE,105,0.0,1.0,92,0.00,,---,0.00,VWS V14.01,2013-05-04 05:50:00,
2013-05-04 01:51:00,45.5,43.3,30.32,ESE,105,2.0,3.0,92,0.00,,---,0.00,VWS V14.01,2013-05-04 05:51:00,
2013-05-04 01:55:00,45.5,43.3,30.32,ESE,105,3.0,3.0,92,0.00,,---,0.00,VWS V14.01,2013-05-04 05:55:00,
2013-05-04 01:56:00,45.4,43.2,30.32,ESE,105,0.0,2.0,92,0.00,,---,0.00,VWS V14.01,2013-05-04 05:56:00,
2013-05-04 02:00:00,45.2,43.0,30.32,ESE,105,1.0,2.0,92,0.00,,---,0.00,VWS V14.01,2013-05-04 06:00:00,
2013-05-04 02:01:00,45.1,42.9,30.32,ESE,105,1.0,2.0,92,0.00,,---,0.00,VWS V14.01,2013-05-04 06:01:00,
2013-05-04 02:05:00,44.9,42.7,30.31,ESE,103,0.0,3.0,92,0.00,,---,0.00,VWS V14.01,2013-05-04 06:05:00,
2013-05-04 02:06:00,44.9,42.7,30.31,ESE,103,0.0,1.0,92,0.00,,---,0.00,VWS V14.01,2013-05-04 06:06:00,
2013-05-04 02:10:00,44.9,43.0,30.31,ESE,103,0.0,1.0,93,0.00,,---,0.00,VWS V14.01,2013-05-04 06:10:00,
2013-05-04 02:11:00,44.9,43.0,30.31,ESE,103,1.0,3.0,93,0.00,,---,0.00,VWS V14.01,2013-05-04 06:11:00,
2013-05-04 02:15:00,45.0,43.1,30.31,ESE,103,1.0,3.0,93,0.00,,---,0.00,VWS V14.01,2013-05-04 06:15:00,
2013-05-04 02:16:00,45.1,43.2,30.31,ESE,103,0.0,2.0,93,0.00,,---,0.00,VWS V14.01,2013-05-04 06:16:00,
2013-05-04 02:20:00,45.1,43.2,30.31,ENE,74,3.0,3.0,93,0.00,,---,0.00,VWS V14.01,2013-05-04 06:20:00,
2013-05-04 02:21:00,45.2,43.3,30.31,ENE,74,1.0,4.0,93,0.00,,---,0.00,VWS V14.01,2013-05-04 06:21:00,
2013-05-04 02:25:00,45.2,43.3,30.31,NNE,25,2.0,4.0,93,0.00,,---,0.00,VWS V14.01,2013-05-04 06:25:00,
2013-05-04 02:26:00,45.2,43.3,30.31,NNE,25,4.0,4.0,93,0.00,,---,0.00,VWS V14.01,2013-05-04 06:26:00,
2013-05-04 02:30:00,45.1,43.2,30.30,NNE,25,2.0,4.0,93,0.00,,---,0.00,VWS V14.01,2013-05-04 06:30:00,
2013-05-04 02:31:00,45.1,43.2,30.30,NNE,25,4.0,4.0,93,0.00,,---,0.00,VWS V14.01,2013-05-04 06:31:00,
2013-05-04 02:35:00,45.0,43.1,30.30,NNE,15,0.0,1.0,93,0.00,,---,0.00,VWS V14.01,2013-05-04 06:35:00,
2013-05-04 02:40:00,44.9,43.0,30.30,NNE,15,1.0,2.0,93,0.00,,---,0.00,VWS V14.01,2013-05-04 06:40:00,
2013-05-04 02:45:00,44.8,42.9,30.30,NNE,20,4.0,4.0,93,0.00,,---,0.00,VWS V14.01,2013-05-04 06:45:00,
2013-05-04 02:50:00,44.8,42.9,30.30,NNE,20,1.0,3.0,93,0.00,,---,0.00,VWS V14.01,2013-05-04 06:50:00,
2013-05-04 02:55:00,44.7,42.8,30.30,NNE,20,1.0,2.0,93,0.00,,---,0.00,VWS V14.01,2013-05-04 06:55:00,
2013-05-04 03:00:00,44.7,42.8,30.29,NNE,13,1.0,4.0,93,0.00,,---,0.00,VWS V14.01,2013-05-04 07:00:00,
2013-05-04 03:05:00,44.7,42.8,30.29,NNE,13,0.0,2.0,93,0.00,,---,0.00,VWS V14.01,2013-05-04 07:05:00,
2013-05-04 03:10:00,44.6,42.7,30.30,NNE,13,1.0,1.0,93,0.00,,---,0.00,VWS V14.01,2013-05-04 07:10:00,
2013-05-04 03:15:00,44.5,42.6,30.30,NNE,13,1.0,1.0,93,0.00,,---,0.00,VWS V14.01,2013-05-04 07:15:00,
2013-05-04 03:20:00,44.5,42.6,30.29,NNE,13,0.0,0.0,93,0.00,,---,0.00,VWS V14.01,2013-05-04 07:20:00,
2013-05-04 03:25:00,44.4,42.5,30.29,NNE,13,3.0,3.0,93,0.00,,---,0.00,VWS V14.01,2013-05-04 07:25:00,
2013-05-04 03:30:00,44.4,42.5,30.29,NNE,13,0.0,2.0,93,0.00,,---,0.00,VWS V14.01,2013-05-04 07:30:00,
2013-05-04 03:35:00,44.4,42.5,30.29,NNE,13,0.0,1.0,93,0.00,,---,0.00,VWS V14.01,2013-05-04 07:35:00,
2013-05-04 03:40:00,44.4,42.8,30.29,NNE,13,2.0,3.0,94,0.00,,---,0.00,VWS V14.01,2013-05-04 07:40:00,
2013-05-04 03:45:00,44.5,42.9,30.28,NNE,13,1.0,3.0,94,0.00,,---,0.00,VWS V14.01,2013-05-04 07:45:00,
2013-05-04 03:50:00,44.5,42.9,30.28,NNE,13,1.0,4.0,94,0.00,,---,0.00,VWS V14.01,2013-05-04 07:50:00,
2013-05-04 03:55:00,44.5,42.9,30.28,North,358,0.0,2.0,94,0.00,,---,0.00,VWS V14.01,2013-05-04 07:55:00,
2013-05-04 04:00:00,44.6,43.0,30.28,NNE,30,3.0,4.0,94,0.00,,---,0.00,VWS V14.01,2013-05-04 08:00:00,
2013-05-04 04:05:00,44.6,43.0,30.28,NE,34,3.0,3.0,94,0.00,,---,0.00,VWS V14.01,2013-05-04 08:05:00,
2013-05-04 04:10:00,44.5,42.9,30.28,NNE,25,2.0,3.0,94,0.00,,---,0.00,VWS V14.01,2013-05-04 08:10:00,
2013-05-04 04:15:00,44.5,42.9,30.28,NNE,25,0.0,3.0,94,0.00,,---,0.00,VWS V14.01,2013-05-04 08:15:00,
2013-05-04 04:20:00,44.5,42.9,30.28,NNE,25,0.0,1.0,94,0.00,,---,0.00,VWS V14.01,2013-05-04 08:20:00,
2013-05-04 04:25:00,44.3,42.7,30.28,NNE,25,0.0,1.0,94,0.00,,---,0.00,VWS V14.01,2013-05-04 08:25:00,
2013-05-04 04:30:00,44.1,42.5,30.28,NNE,25,0.0,0.0,94,0.00,,---,0.00,VWS V14.01,2013-05-04 08:30:00,
2013-05-04 04:35:00,43.8,42.2,30.28,NNE,25,0.0,2.0,94,0.00,,---,0.00,VWS V14.01,2013-05-04 08:35:00,
2013-05-04 04:40:00,43.7,42.1,30.28,NNE,25,0.0,1.0,94,0.00,,---,0.00,VWS V14.01,2013-05-04 08:40:00,
2013-05-04 04:45:00,43.6,42.0,30.28,NNE,25,1.0,3.0,94,0.00,,---,0.00,VWS V14.01,2013-05-04 08:45:00,
2013-05-04 04:50:00,43.5,41.9,30.28,NNE,25,1.0,2.0,94,0.00,,---,0.00,VWS V14.01,2013-05-04 08:50:00,
2013-05-04 04:55:00,43.5,41.9,30.28,NNE,25,0.0,2.0,94,0.00,,---,0.00,VWS V14.01,2013-05-04 08:55:00,
2013-05-04 05:00:00,43.6,42.0,30.28,NNE,25,0.0,0.0,94,0.00,,---,0.00,VWS V14.01,2013-05-04 09:00:00,
2013-05-04 05:05:00,43.6,42.0,30.28,NNE,25,0.0,2.0,94,0.00,,---,0.00,VWS V14.01,2013-05-04 09:05:00,
2013-05-04 05:10:00,43.6,42.0,30.28,NNE,25,1.0,2.0,94,0.00,,---,0.00,VWS V14.01,2013-05-04 09:10:00,
2013-05-04 05:15:00,43.7,42.4,30.28,NNE,25,0.0,1.0,95,0.00,,---,0.00,VWS V14.01,2013-05-04 09:15:00,
2013-05-04 05:20:00,43.8,42.5,30.28,NNE,25,3.0,3.0,95,0.00,,---,0.00,VWS V14.01,2013-05-04 09:20:00,
2013-05-04 05:25:00,44.0,42.7,30.28,NNE,25,2.0,3.0,95,0.00,,---,0.00,VWS V14.01,2013-05-04 09:25:00,
2013-05-04 05:30:00,44.1,42.8,30.28,North,5,0.0,2.0,95,0.00,,---,0.00,VWS V14.01,2013-05-04 09:30:00,
2013-05-04 05:35:00,44.2,42.9,30.28,NNE,13,1.0,3.0,95,0.00,,---,0.00,VWS V14.01,2013-05-04 09:35:00,
2013-05-04 05:40:00,44.3,43.0,30.28,NNE,13,0.0,1.0,95,0.00,,---,0.00,VWS V14.01,2013-05-04 09:40:00,
2013-05-04 05:45:00,44.3,43.0,30.28,NNE,13,0.0,2.0,95,0.00,,---,0.00,VWS V14.01,2013-05-04 09:45:00,
2013-05-04 05:50:00,44.4,43.1,30.28,NNE,13,0.0,2.0,95,0.00,,---,0.00,VWS V14.01,2013-05-04 09:50:00,
2013-05-04 05:55:00,44.5,43.2,30.28,NNE,13,1.0,1.0,95,0.00,,---,0.00,VWS V14.01,2013-05-04 09:55:00,
2013-05-04 06:00:00,44.4,43.1,30.28,NNE,13,1.0,1.0,95,0.00,,---,0.00,VWS V14.01,2013-05-04 10:00:00,
2013-05-04 06:05:00,44.3,43.0,30.28,NNE,13,0.0,1.0,95,0.00,,---,0.00,VWS V14.01,2013-05-04 10:05:00,
2013-05-04 06:10:00,44.2,42.9,30.28,NNE,12,1.0,2.0,95,0.00,,---,0.00,VWS V14.01,2013-05-04 10:10:00,
2013-05-04 06:15:00,44.4,43.1,30.28,NNE,13,0.0,1.0,95,0.00,,---,0.00,VWS V14.01,2013-05-04 10:15:00,
2013-05-04 06:20:00,44.6,43.3,30.28,North,11,0.0,2.0,95,0.00,,---,0.00,VWS V14.01,2013-05-04 10:20:00,
2013-05-04 06:25:00,44.9,43.6,30.28,North,11,0.0,1.0,95,0.00,,---,0.00,VWS V14.01,2013-05-04 10:25:00,
2013-05-04 06:30:00,45.0,43.7,30.28,North,11,0.0,3.0,95,0.00,,---,0.00,VWS V14.01,2013-05-04 10:30:00,
2013-05-04 06:35:00,45.2,43.9,30.28,North,11,4.0,4.0,95,0.00,,---,0.00,VWS V14.01,2013-05-04 10:35:00,
2013-05-04 06:40:00,45.5,44.2,30.29,North,11,1.0,4.0,95,0.00,,---,0.00,VWS V14.01,2013-05-04 10:40:00,
2013-05-04 06:45:00,45.9,44.5,30.28,North,351,0.0,1.0,95,0.00,,---,0.00,VWS V14.01,2013-05-04 10:45:00,
2013-05-04 06:50:00,46.2,44.8,30.28,North,351,0.0,3.0,95,0.00,,---,0.00,VWS V14.01,2013-05-04 10:50:00,
2013-05-04 06:55:00,46.5,45.2,30.29,North,351,2.0,3.0,95,0.00,,---,0.00,VWS V14.01,2013-05-04 10:55:00,
2013-05-04 07:00:00,46.9,45.3,30.29,North,351,0.0,1.0,94,0.00,,---,0.00,VWS V14.01,2013-05-04 11:00:00,
2013-05-04 07:05:00,47.2,45.6,30.29,North,351,3.0,3.0,94,0.00,,---,0.00,VWS V14.01,2013-05-04 11:05:00,
2013-05-04 07:10:00,47.5,45.6,30.29,NE,42,2.0,3.0,93,0.00,,---,0.00,VWS V14.01,2013-05-04 11:10:00,
2013-05-04 07:15:00,47.7,45.8,30.29,NNE,30,1.0,4.0,93,0.00,,---,0.00,VWS V14.01,2013-05-04 11:15:00,
2013-05-04 07:20:00,47.9,45.7,30.29,North,1,2.0,4.0,92,0.00,,---,0.00,VWS V14.01,2013-05-04 11:20:00,
2013-05-04 07:25:00,48.3,46.1,30.29,North,358,2.0,5.0,92,0.00,,---,0.00,VWS V14.01,2013-05-04 11:25:00,
2013-05-04 07:30:00,48.7,46.2,30.29,ENE,62,1.0,3.0,91,0.00,,---,0.00,VWS V14.01,2013-05-04 11:30:00,
2013-05-04 07:35:00,49.1,46.6,30.29,NE,49,4.0,8.0,91,0.00,,---,0.00,VWS V14.01,2013-05-04 11:35:00,
2013-05-04 07:40:00,49.6,46.8,30.29,NE,53,2.0,3.0,90,0.00,,---,0.00,VWS V14.01,2013-05-04 11:40:00,
2013-05-04 07:45:00,49.9,46.8,30.29,NNE,13,1.0,5.0,89,0.00,,---,0.00,VWS V14.01,2013-05-04 11:45:00,
2013-05-04 07:50:00,50.4,47.3,30.29,North,11,3.0,6.0,89,0.00,,---,0.00,VWS V14.01,2013-05-04 11:50:00,
2013-05-04 07:55:00,50.8,47.4,30.29,NNE,16,3.0,3.0,88,0.00,,---,0.00,VWS V14.01,2013-05-04 11:55:00,
2013-05-04 08:00:00,51.3,47.6,30.29,NE,41,2.0,6.0,87,0.00,,---,0.00,VWS V14.01,2013-05-04 12:00:00,
2013-05-04 08:05:00,51.5,47.5,30.29,NNE,30,3.0,7.0,86,0.00,,---,0.00,VWS V14.01,2013-05-04 12:05:00,
2013-05-04 08:10:00,51.7,47.7,30.29,NNE,20,4.0,6.0,86,0.00,,---,0.00,VWS V14.01,2013-05-04 12:10:00,
2013-05-04 08:15:00,52.2,47.8,30.29,North,5,5.0,8.0,85,0.00,,---,0.00,VWS V14.01,2013-05-04 12:15:00,
2013-05-04 08:16:00,52.3,47.6,30.29,NNE,13,4.0,8.0,84,0.00,,---,0.00,VWS V14.01,2013-05-04 12:16:00,
2013-05-04 08:20:00,52.8,48.1,30.29,North,352,3.0,8.0,84,0.00,,---,0.00,VWS V14.01,2013-05-04 12:20:00,
2013-05-04 08:21:00,52.8,47.8,30.29,North,3,3.0,6.0,83,0.00,,---,0.00,VWS V14.01,2013-05-04 12:21:00,
2013-05-04 08:25:00,53.2,48.2,30.29,ENE,59,2.0,6.0,83,0.00,,---,0.00,VWS V14.01,2013-05-04 12:25:00,
2013-05-04 08:26:00,53.5,48.5,30.29,ENE,57,0.0,3.0,83,0.00,,---,0.00,VWS V14.01,2013-05-04 12:26:00,
2013-05-04 08:30:00,54.1,48.4,30.29,NE,54,3.0,6.0,81,0.00,,---,0.00,VWS V14.01,2013-05-04 12:30:00,
2013-05-04 08:31:00,54.3,47.9,30.29,NE,42,2.0,6.0,79,0.00,,---,0.00,VWS V14.01,2013-05-04 12:31:00,
2013-05-04 08:35:00,54.9,48.2,30.29,NNE,20,3.0,7.0,78,0.00,,---,0.00,VWS V14.01,2013-05-04 12:35:00,
2013-05-04 08:36:00,55.0,47.9,30.29,NNE,25,5.0,7.0,77,0.00,,---,0.00,VWS V14.01,2013-05-04 12:36:00,
2013-05-04 08:40:00,55.3,47.9,30.29,ENE,57,4.0,10.0,76,0.00,,---,0.00,VWS V14.01,2013-05-04 12:40:00,
2013-05-04 08:41:00,55.4,47.3,30.29,ENE,70,3.0,10.0,74,0.00,,---,0.00,VWS V14.01,2013-05-04 12:41:00,
2013-05-04 08:45:00,55.7,47.5,30.29,ENE,59,2.0,10.0,74,0.00,,---,0.00,VWS V14.01,2013-05-04 12:45:00,
2013-05-04 08:46:00,55.9,47.4,30.29,ENE,59,3.0,7.0,73,0.00,,---,0.00,VWS V14.01,2013-05-04 12:46:00,
2013-05-04 08:50:00,56.4,47.9,30.29,NE,54,6.0,8.0,73,0.00,,---,0.00,VWS V14.01,2013-05-04 12:50:00,
2013-05-04 08:51:00,56.6,47.7,30.29,ENE,68,6.0,9.0,72,0.00,,---,0.00,VWS V14.01,2013-05-04 12:51:00,
2013-05-04 08:55:00,56.8,47.1,30.29,North,9,8.0,9.0,70,0.00,,---,0.00,VWS V14.01,2013-05-04 12:55:00,
2013-05-04 08:56:00,56.7,46.7,30.29,NE,54,5.0,11.0,69,0.00,,---,0.00,VWS V14.01,2013-05-04 12:56:00,
2013-05-04 09:00:00,56.6,46.6,30.29,NE,49,7.0,11.0,69,0.00,,---,0.00,VWS V14.01,2013-05-04 13:00:00,
2013-05-04 09:01:00,56.7,46.7,30.29,NE,53,8.0,11.0,69,0.00,,---,0.00,VWS V14.01,2013-05-04 13:01:00,
2013-05-04 09:03:00,56.8,46.4,30.29,ESE,108,9.0,11.0,68,0.00,,---,0.00,VWS V14.01,2013-05-04 13:03:00,
2013-05-04 09:05:00,56.9,46.5,30.29,East,82,7.0,11.0,68,0.00,,---,0.00,VWS V14.01,2013-05-04 13:05:00,
2013-05-04 09:08:00,56.9,46.8,30.29,ESE,103,4.0,13.0,69,0.00,,---,0.00,VWS V14.01,2013-05-04 13:08:00,
2013-05-04 09:10:00,56.9,46.5,30.29,ENE,77,5.0,13.0,68,0.00,,---,0.00,VWS V14.01,2013-05-04 13:10:00,
2013-05-04 09:13:00,56.9,46.5,30.29,East,90,7.0,11.0,68,0.00,,---,0.00,VWS V14.01,2013-05-04 13:13:00,
2013-05-04 09:15:00,56.9,46.5,30.29,ENE,78,13.0,13.0,68,0.00,,---,0.00,VWS V14.01,2013-05-04 13:15:00,
2013-05-04 09:18:00,56.9,46.8,30.29,ENE,61,4.0,13.0,69,0.00,,---,0.00,VWS V14.01,2013-05-04 13:18:00,
2013-05-04 09:20:00,56.9,46.5,30.29,ESE,115,2.0,13.0,68,0.00,,---,0.00,VWS V14.01,2013-05-04 13:20:00,
2013-05-04 09:23:00,57.2,46.4,30.29,East,94,3.0,12.0,67,0.00,,---,0.00,VWS V14.01,2013-05-04 13:23:00,
2013-05-04 09:25:00,57.4,47.3,30.29,ENE,59,5.0,12.0,69,0.00,,---,0.00,VWS V14.01,2013-05-04 13:25:00,
2013-05-04 09:28:00,57.6,46.7,30.29,ESE,114,3.0,9.0,67,0.00,,---,0.00,VWS V14.01,2013-05-04 13:28:00,
2013-05-04 09:30:00,57.7,47.2,30.29,East,84,4.0,9.0,68,0.00,,---,0.00,VWS V14.01,2013-05-04 13:30:00,
2013-05-04 09:33:00,57.6,46.7,30.30,ENE,74,7.0,11.0,67,0.00,,---,0.00,VWS V14.01,2013-05-04 13:33:00,
2013-05-04 09:35:00,57.6,46.3,30.30,ENE,57,7.0,12.0,66,0.00,,---,0.00,VWS V14.01,2013-05-04 13:35:00,
2013-05-04 09:38:00,56.9,46.1,30.30,ENE,61,8.0,12.0,67,0.00,,---,0.00,VWS V14.01,2013-05-04 13:38:00,
2013-05-04 09:40:00,56.8,46.0,30.30,NNE,30,3.0,12.0,67,0.00,,---,0.00,VWS V14.01,2013-05-04 13:40:00,
2013-05-04 09:43:00,56.9,46.1,30.30,NE,56,6.0,13.0,67,0.00,,---,0.00,VWS V14.01,2013-05-04 13:43:00,
2013-05-04 09:45:00,56.8,46.4,30.30,ENE,57,6.0,13.0,68,0.00,,---,0.00,VWS V14.01,2013-05-04 13:45:00,
2013-05-04 09:48:00,56.8,46.0,30.30,ENE,72,8.0,11.0,67,0.00,,---,0.00,VWS V14.01,2013-05-04 13:48:00,
2013-05-04 09:50:00,56.9,46.5,30.30,ENE,62,5.0,11.0,68,0.00,,---,0.00,VWS V14.01,2013-05-04 13:50:00,
2013-05-04 09:53:00,57.0,46.6,30.30,NNW,346,8.0,11.0,68,0.00,,---,0.00,VWS V14.01,2013-05-04 13:53:00,
2013-05-04 09:55:00,57.2,46.4,30.30,ENE,63,1.0,11.0,67,0.00,,---,0.00,VWS V14.01,2013-05-04 13:55:00,
2013-05-04 09:58:00,57.6,46.3,30.30,NE,49,8.0,14.0,66,0.00,,---,0.00,VWS V14.01,2013-05-04 13:58:00,
2013-05-04 10:00:00,57.5,46.2,30.30,NE,56,10.0,14.0,66,0.00,,---,0.00,VWS V14.01,2013-05-04 14:00:00,
2013-05-04 10:03:00,57.2,46.0,30.30,ENE,73,9.0,12.0,66,0.00,,---,0.00,VWS V14.01,2013-05-04 14:03:00,
2013-05-04 10:05:00,57.1,45.5,30.30,ENE,64,7.0,12.0,65,0.00,,---,0.00,VWS V14.01,2013-05-04 14:05:00,
2013-05-04 10:08:00,57.3,46.0,30.30,ENE,68,7.0,13.0,66,0.00,,---,0.00,VWS V14.01,2013-05-04 14:08:00,
2013-05-04 10:10:00,57.4,46.2,30.30,ENE,70,4.0,13.0,66,0.00,,---,0.00,VWS V14.01,2013-05-04 14:10:00,
2013-05-04 10:13:00,57.9,45.8,30.30,NE,41,7.0,12.0,64,0.00,,---,0.00,VWS V14.01,2013-05-04 14:13:00,
2013-05-04 10:15:00,57.8,45.3,30.30,NNE,20,3.0,12.0,63,0.00,,---,0.00,VWS V14.01,2013-05-04 14:15:00,
2013-05-04 10:18:00,57.7,45.2,30.30,ENE,74,9.0,11.0,63,0.00,,---,0.00,VWS V14.01,2013-05-04 14:18:00,
2013-05-04 10:20:00,57.7,45.2,30.30,ENE,76,5.0,11.0,63,0.00,,---,0.00,VWS V14.01,2013-05-04 14:20:00,
2013-05-04 10:23:00,57.8,45.3,30.30,NNE,20,6.0,11.0,63,0.00,,---,0.00,VWS V14.01,2013-05-04 14:23:00,
2013-05-04 10:25:00,57.8,44.9,30.30,NNE,30,5.0,11.0,62,0.00,,---,0.00,VWS V14.01,2013-05-04 14:25:00,
2013-05-04 10:28:00,57.9,45.0,30.30,East,101,4.0,9.0,62,0.00,,---,0.00,VWS V14.01,2013-05-04 14:28:00,
2013-05-04 10:30:00,57.9,45.4,30.30,East,86,5.0,9.0,63,0.00,,---,0.00,VWS V14.01,2013-05-04 14:30:00,
2013-05-04 10:33:00,57.9,45.4,30.30,East,79,7.0,13.0,63,0.00,,---,0.00,VWS V14.01,2013-05-04 14:33:00,
2013-05-04 10:35:00,57.9,45.4,30.30,ESE,117,2.0,13.0,63,0.00,,---,0.00,VWS V14.01,2013-05-04 14:35:00,
2013-05-04 10:38:00,58.4,46.3,30.30,East,95,7.0,10.0,64,0.00,,---,0.00,VWS V14.01,2013-05-04 14:38:00,
2013-05-04 10:40:00,58.5,46.4,30.30,ENE,70,9.0,10.0,64,0.00,,---,0.00,VWS V14.01,2013-05-04 14:40:00,
2013-05-04 10:43:00,58.1,46.0,30.30,NE,43,7.0,13.0,64,0.00,,---,0.00,VWS V14.01,2013-05-04 14:43:00,
2013-05-04 10:45:00,58.0,45.9,30.30,ENE,66,8.0,13.0,64,0.00,,---,0.00,VWS V14.01,2013-05-04 14:45:00,
2013-05-04 10:48:00,58.0,45.9,30.30,ENE,67,5.0,10.0,64,0.00,,---,0.00,VWS V14.01,2013-05-04 14:48:00,
2013-05-04 10:50:00,58.4,46.7,30.30,East,92,10.0,13.0,65,0.00,,---,0.00,VWS V14.01,2013-05-04 14:50:00,
2013-05-04 10:53:00,57.8,45.3,30.30,SSE,159,6.0,11.0,63,0.00,,---,0.00,VWS V14.01,2013-05-04 14:53:00,
2013-05-04 10:55:00,57.8,46.1,30.30,East,82,9.0,12.0,65,0.00,,---,0.00,VWS V14.01,2013-05-04 14:55:00,
2013-05-04 10:58:00,58.0,46.3,30.30,ENE,68,5.0,10.0,65,0.00,,---,0.00,VWS V14.01,2013-05-04 14:58:00,
2013-05-04 11:00:00,57.9,45.8,30.30,East,88,3.0,10.0,64,0.00,,---,0.00,VWS V14.01,2013-05-04 15:00:00,
2013-05-04 11:03:00,58.1,45.6,30.30,NE,45,8.0,14.0,63,0.00,,---,0.00,VWS V14.01,2013-05-04 15:03:00,
2013-05-04 11:05:00,57.9,45.8,30.30,NNE,30,13.0,14.0,64,0.00,,---,0.00,VWS V14.01,2013-05-04 15:05:00,
2013-05-04 11:08:00,57.1,45.5,30.30,North,5,6.0,14.0,65,0.00,,---,0.00,VWS V14.01,2013-05-04 15:08:00,
2013-05-04 11:10:00,57.1,45.5,30.30,East,83,8.0,14.0,65,0.00,,---,0.00,VWS V14.01,2013-05-04 15:10:00,
2013-05-04 11:13:00,57.0,45.4,30.30,NE,49,8.0,14.0,65,0.00,,---,0.00,VWS V14.01,2013-05-04 15:13:00,
2013-05-04 11:15:00,56.9,46.1,30.30,East,93,2.0,14.0,67,0.00,,---,0.00,VWS V14.01,2013-05-04 15:15:00,
2013-05-04 11:18:00,57.4,46.5,30.30,East,84,5.0,11.0,67,0.00,,---,0.00,VWS V14.01,2013-05-04 15:18:00,
2013-05-04 11:20:00,57.6,46.3,30.30,ENE,60,6.0,11.0,66,0.00,,---,0.00,VWS V14.01,2013-05-04 15:20:00,
2013-05-04 11:23:00,57.6,46.7,30.30,East,87,2.0,9.0,67,0.00,,---,0.00,VWS V14.01,2013-05-04 15:23:00,
2013-05-04 11:25:00,57.9,47.0,30.30,ENE,69,5.0,9.0,67,0.00,,---,0.00,VWS V14.01,2013-05-04 15:25:00,
2013-05-04 11:28:00,57.7,46.4,30.30,East,88,5.0,11.0,66,0.00,,---,0.00,VWS V14.01,2013-05-04 15:28:00,
2013-05-04 11:30:00,57.8,46.1,30.30,ESE,119,9.0,13.0,65,0.00,,---,0.00,VWS V14.01,2013-05-04 15:30:00,
2013-05-04 11:33:00,57.3,46.0,30.30,East,85,9.0,11.0,66,0.00,,---,0.00,VWS V14.01,2013-05-04 15:33:00,
2013-05-04 11:35:00,57.5,46.2,30.30,East,80,5.0,11.0,66,0.00,,---,0.00,VWS V14.01,2013-05-04 15:35:00,
2013-05-04 11:38:00,58.2,47.3,30.30,East,89,7.0,12.0,67,0.00,,---,0.00,VWS V14.01,2013-05-04 15:38:00,
2013-05-04 11:40:00,58.5,47.6,30.30,North,9,9.0,12.0,67,0.00,,---,0.00,VWS V14.01,2013-05-04 15:40:00,
2013-05-04 11:43:00,57.9,45.8,30.30,ENE,61,8.0,12.0,64,0.00,,---,0.00,VWS V14.01,2013-05-04 15:43:00,
2013-05-04 11:45:00,57.5,45.8,30.30,NE,52,5.0,12.0,65,0.00,,---,0.00,VWS V14.01,2013-05-04 15:45:00,
2013-05-04 11:48:00,57.8,46.5,30.30,SE,136,7.0,11.0,66,0.00,,---,0.00,VWS V14.01,2013-05-04 15:48:00,
2013-05-04 11:50:00,58.1,47.2,30.30,NE,34,5.0,11.0,67,0.00,,---,0.00,VWS V14.01,2013-05-04 15:50:00,
2013-05-04 11:53:00,58.3,45.8,30.30,East,88,8.0,13.0,63,0.00,,---,0.00,VWS V14.01,2013-05-04 15:53:00,
2013-05-04 11:55:00,57.9,45.8,30.30,ENE,69,5.0,13.0,64,0.00,,---,0.00,VWS V14.01,2013-05-04 15:55:00,
2013-05-04 11:58:00,57.7,46.4,30.30,NE,37,3.0,10.0,66,0.00,,---,0.00,VWS V14.01,2013-05-04 15:58:00,
2013-05-04 12:00:00,57.8,46.5,30.30,East,100,10.0,10.0,66,0.00,,---,0.00,VWS V14.01,2013-05-04 16:00:00,
2013-05-04 12:03:00,58.1,47.2,30.30,ESE,115,8.0,12.0,67,0.00,,---,0.00,VWS V14.01,2013-05-04 16:03:00,
2013-05-04 12:05:00,58.3,46.6,30.30,ESE,110,5.0,12.0,65,0.00,,---,0.00,VWS V14.01,2013-05-04 16:05:00,
2013-05-04 12:08:00,58.6,46.9,30.29,ESE,115,6.0,9.0,65,0.00,,---,0.00,VWS V14.01,2013-05-04 16:08:00,
2013-05-04 12:10:00,58.7,47.4,30.29,ESE,107,8.0,13.0,66,0.00,,---,0.00,VWS V14.01,2013-05-04 16:10:00,
2013-05-04 12:13:00,58.6,47.3,30.29,NE,41,7.0,11.0,66,0.00,,---,0.00,VWS V14.01,2013-05-04 16:13:00,
2013-05-04 12:15:00,58.5,46.4,30.29,East,91,5.0,11.0,64,0.00,,---,0.00,VWS V14.01,2013-05-04 16:15:00,
2013-05-04 12:18:00,58.8,47.5,30.29,East,82,10.0,10.0,66,0.00,,---,0.00,VWS V14.01,2013-05-04 16:18:00,
2013-05-04 12:20:00,58.8,47.5,30.29,SE,135,8.0,14.0,66,0.00,,---,0.00,VWS V14.01,2013-05-04 16:20:00,
2013-05-04 12:23:00,58.9,47.2,30.29,SSE,149,8.0,14.0,65,0.00,,---,0.00,VWS V14.01,2013-05-04 16:23:00,
2013-05-04 12:25:00,59.0,47.7,30.29,ESE,109,5.0,15.0,66,0.00,,---,0.00,VWS V14.01,2013-05-04 16:25:00,
2013-05-04 12:28:00,59.5,47.7,30.29,ENE,63,6.0,11.0,65,0.00,,---,0.00,VWS V14.01,2013-05-04 16:28:00,
2013-05-04 12:30:00,59.7,47.1,30.29,ENE,65,5.0,12.0,63,0.00,,---,0.00,VWS V14.01,2013-05-04 16:30:00,
2013-05-04 12:33:00,59.5,46.9,30.29,ENE,67,9.0,12.0,63,0.00,,---,0.00,VWS V14.01,2013-05-04 16:33:00,
2013-05-04 12:35:00,59.1,46.5,30.29,East,88,4.0,12.0,63,0.00,,---,0.00,VWS V14.01,2013-05-04 16:35:00,
2013-05-04 12:38:00,59.0,46.0,30.29,ENE,59,5.0,14.0,62,0.00,,---,0.00,VWS V14.01,2013-05-04 16:38:00,
2013-05-04 12:40:00,58.7,46.2,30.29,ENE,75,3.0,14.0,63,0.00,,---,0.00,VWS V14.01,2013-05-04 16:40:00,
2013-05-04 12:43:00,59.2,45.8,30.29,ENE,67,9.0,13.0,61,0.00,,---,0.00,VWS V14.01,2013-05-04 16:43:00,
2013-05-04 12:45:00,59.2,45.8,30.29,NE,39,13.0,14.0,61,0.00,,---,0.00,VWS V14.01,2013-05-04 16:45:00,
2013-05-04 12:48:00,58.8,45.4,30.29,NNE,30,7.0,13.0,61,0.00,,---,0.00,VWS V14.01,2013-05-04 16:48:00,
2013-05-04 12:50:00,58.5,44.7,30.29,ENE,71,7.0,13.0,60,0.00,,---,0.00,VWS V14.01,2013-05-04 16:50:00,
2013-05-04 12:53:00,58.6,44.8,30.29,ENE,67,9.0,14.0,60,0.00,,---,0.00,VWS V14.01,2013-05-04 16:53:00,
2013-05-04 12:55:00,58.7,45.3,30.29,ESE,105,14.0,14.0,61,0.00,,---,0.00,VWS V14.01,2013-05-04 16:55:00,
2013-05-04 12:58:00,59.5,45.6,30.29,ENE,69,6.0,14.0,60,0.00,,---,0.00,VWS V14.01,2013-05-04 16:58:00,
2013-05-04 13:00:00,59.9,46.0,30.29,East,82,9.0,14.0,60,0.00,,---,0.00,VWS V14.01,2013-05-04 17:00:00,
2013-05-04 13:03:00,59.3,45.0,30.29,East,93,4.0,13.0,59,0.00,,---,0.00,VWS V14.01,2013-05-04 17:03:00,
2013-05-04 13:05:00,59.2,44.5,30.29,NE,53,7.0,13.0,58,0.00,,---,0.00,VWS V14.01,2013-05-04 17:05:00,
2013-05-04 13:08:00,60.2,45.4,30.29,East,98,4.0,10.0,58,0.00,,---,0.00,VWS V14.01,2013-05-04 17:08:00,
2013-05-04 13:10:00,60.5,46.1,30.29,East,86,4.0,10.0,59,0.00,,---,0.00,VWS V14.01,2013-05-04 17:10:00,
2013-05-04 13:13:00,60.0,44.7,30.29,East,96,4.0,12.0,57,0.00,,---,0.00,VWS V14.01,2013-05-04 17:13:00,
2013-05-04 13:15:00,59.7,44.5,30.29,ESE,120,2.0,12.0,57,0.00,,---,0.00,VWS V14.01,2013-05-04 17:15:00,
2013-05-04 13:18:00,60.5,45.7,30.29,ESE,103,4.0,10.0,58,0.00,,---,0.00,VWS V14.01,2013-05-04 17:18:00,
2013-05-04 13:20:00,60.6,45.8,30.29,ENE,66,5.0,10.0,58,0.00,,---,0.00,VWS V14.01,2013-05-04 17:20:00,
2013-05-04 13:23:00,60.1,44.8,30.29,ENE,71,8.0,13.0,57,0.00,,---,0.00,VWS V14.01,2013-05-04 17:23:00,
2013-05-04 13:25:00,59.8,45.0,30.29,East,92,9.0,13.0,58,0.00,,---,0.00,VWS V14.01,2013-05-04 17:25:00,
2013-05-04 13:28:00,60.0,44.7,30.29,East,92,4.0,12.0,57,0.00,,---,0.00,VWS V14.01,2013-05-04 17:28:00,
2013-05-04 13:30:00,59.9,44.7,30.29,East,99,5.0,12.0,57,0.00,,---,0.00,VWS V14.01,2013-05-04 17:30:00,
2013-05-04 13:33:00,59.5,43.8,30.28,ESE,115,10.0,11.0,56,0.00,,---,0.00,VWS V14.01,2013-05-04 17:33:00,
2013-05-04 13:35:00,59.7,44.0,30.29,ESE,111,10.0,13.0,56,0.00,,---,0.00,VWS V14.01,2013-05-04 17:35:00,
2013-05-04 13:38:00,60.2,43.5,30.29,SE,132,8.0,14.0,54,0.00,,---,0.00,VWS V14.01,2013-05-04 17:38:00,
2013-05-04 13:40:00,60.1,43.9,30.29,SE,142,9.0,14.0,55,0.00,,---,0.00,VWS V14.01,2013-05-04 17:40:00,
2013-05-04 13:43:00,59.9,43.7,30.28,NE,43,3.0,11.0,55,0.00,,---,0.00,VWS V14.01,2013-05-04 17:43:00,
2013-05-04 13:45:00,60.4,45.1,30.28,SE,139,7.0,11.0,57,0.00,,---,0.00,VWS V14.01,2013-05-04 17:45:00,
2013-05-04 13:48:00,60.5,42.8,30.28,SE,134,7.0,12.0,52,0.00,,---,0.00,VWS V14.01,2013-05-04 17:48:00,
2013-05-04 13:50:00,60.2,43.0,30.28,East,94,5.0,12.0,53,0.00,,---,0.00,VWS V14.01,2013-05-04 17:50:00,
2013-05-04 13:53:00,60.1,42.4,30.28,East,96,7.0,13.0,52,0.00,,---,0.00,VWS V14.01,2013-05-04 17:53:00,
2013-05-04 13:55:00,60.1,42.9,30.28,ESE,113,9.0,13.0,53,0.00,,---,0.00,VWS V14.01,2013-05-04 17:55:00,
2013-05-04 13:58:00,60.8,44.5,30.28,SE,127,7.0,10.0,55,0.00,,---,0.00,VWS V14.01,2013-05-04 17:58:00,
2013-05-04 14:00:00,60.7,43.0,30.28,SE,142,11.0,11.0,52,0.00,,---,0.00,VWS V14.01,2013-05-04 18:00:00,
2013-05-04 14:03:00,60.7,44.5,30.28,ESE,105,10.0,15.0,55,0.00,,---,0.00,VWS V14.01,2013-05-04 18:03:00,
2013-05-04 14:05:00,60.4,43.2,30.28,ENE,65,9.0,15.0,53,0.00,,---,0.00,VWS V14.01,2013-05-04 18:05:00,
2013-05-04 14:08:00,60.0,42.3,30.27,East,100,5.0,11.0,52,0.00,,---,0.00,VWS V14.01,2013-05-04 18:08:00,
2013-05-04 14:10:00,60.4,43.7,30.28,ESE,118,5.0,11.0,54,0.00,,---,0.00,VWS V14.01,2013-05-04 18:10:00,
2013-05-04 14:13:00,60.3,42.1,30.27,East,97,4.0,9.0,51,0.00,,---,0.00,VWS V14.01,2013-05-04 18:13:00,
2013-05-04 14:15:00,60.2,43.0,30.27,ENE,69,8.0,10.0,53,0.00,,---,0.00,VWS V14.01,2013-05-04 18:15:00,
2013-05-04 14:18:00,60.2,43.0,30.27,ESE,108,7.0,12.0,53,0.00,,---,0.00,VWS V14.01,2013-05-04 18:18:00,
2013-05-04 14:20:00,60.0,42.8,30.27,ESE,109,8.0,15.0,53,0.00,,---,0.00,VWS V14.01,2013-05-04 18:20:00,
2013-05-04 14:23:00,60.5,44.3,30.27,East,81,4.0,10.0,55,0.00,,---,0.00,VWS V14.01,2013-05-04 18:23:00,
2013-05-04 14:25:00,60.5,42.3,30.28,East,80,4.0,11.0,51,0.00,,---,0.00,VWS V14.01,2013-05-04 18:25:00,
2013-05-04 14:28:00,60.6,43.9,30.27,SE,130,3.0,10.0,54,0.00,,---,0.00,VWS V14.01,2013-05-04 18:28:00,
2013-05-04 14:30:00,60.5,43.8,30.27,SE,144,7.0,11.0,54,0.00,,---,0.00,VWS V14.01,2013-05-04 18:30:00,
2013-05-04 14:33:00,60.7,44.9,30.27,SSE,155,9.0,9.0,56,0.00,,---,0.00,VWS V14.01,2013-05-04 18:33:00,
2013-05-04 14:35:00,60.6,44.8,30.27,ESE,106,5.0,12.0,56,0.00,,---,0.00,VWS V14.01,2013-05-04 18:35:00,
2013-05-04 14:38:00,61.0,44.2,30.27,East,98,3.0,11.0,54,0.00,,---,0.00,VWS V14.01,2013-05-04 18:38:00,
2013-05-04 14:40:00,60.6,43.9,30.27,SSE,151,9.0,11.0,54,0.00,,---,0.00,VWS V14.01,2013-05-04 18:40:00,
2013-05-04 14:42:00,60.8,44.5,30.27,SSE,155,13.0,14.0,55,0.00,,---,0.00,VWS V14.01,2013-05-04 18:42:00,
2013-05-04 14:45:00,60.3,44.1,30.27,SE,144,5.0,14.0,55,0.00,,---,0.00,VWS V14.01,2013-05-04 18:45:00,
2013-05-04 14:47:00,59.5,43.3,30.27,SE,134,12.0,13.0,55,0.00,,---,0.00,VWS V14.01,2013-05-04 18:47:00,
2013-05-04 14:50:00,59.7,44.0,30.27,East,96,10.0,13.0,56,0.00,,---,0.00,VWS V14.01,2013-05-04 18:50:00,
2013-05-04 14:52:00,59.6,43.0,30.27,ESE,103,4.0,13.0,54,0.00,,---,0.00,VWS V14.01,2013-05-04 18:52:00,
2013-05-04 14:55:00,59.3,43.2,30.27,ENE,77,6.0,13.0,55,0.00,,---,0.00,VWS V14.01,2013-05-04 18:55:00,
2013-05-04 14:57:00,59.1,43.4,30.27,ESE,106,9.0,10.0,56,0.00,,---,0.00,VWS V14.01,2013-05-04 18:57:00,
2013-05-04 15:00:00,59.1,42.5,30.27,SE,130,4.0,11.0,54,0.00,,---,0.00,VWS V14.01,2013-05-04 19:00:00,
2013-05-04 15:02:00,59.7,44.5,30.27,SE,143,8.0,13.0,57,0.00,,---,0.00,VWS V14.01,2013-05-04 19:02:00,
2013-05-04 15:05:00,59.5,43.3,30.27,SE,126,8.0,13.0,55,0.00,,---,0.00,VWS V14.01,2013-05-04 19:05:00,
2013-05-04 15:07:00,59.4,43.7,30.27,ESE,107,7.0,11.0,56,0.00,,---,0.00,VWS V14.01,2013-05-04 19:07:00,
2013-05-04 15:10:00,59.0,43.8,30.27,SE,132,9.0,11.0,57,0.00,,---,0.00,VWS V14.01,2013-05-04 19:10:00,
2013-05-04 15:12:00,58.6,43.9,30.26,SE,132,8.0,11.0,58,0.00,,---,0.00,VWS V14.01,2013-05-04 19:12:00,
2013-05-04 15:15:00,58.4,43.7,30.26,SE,132,11.0,11.0,58,0.00,,---,0.00,VWS V14.01,2013-05-04 19:15:00,
2013-05-04 15:17:00,58.7,44.0,30.26,ESE,117,6.0,14.0,58,0.00,,---,0.00,VWS V14.01,2013-05-04 19:17:00,
2013-05-04 15:20:00,58.7,44.0,30.26,SE,135,15.0,15.0,58,0.00,,---,0.00,VWS V14.01,2013-05-04 19:20:00,
2013-05-04 15:22:00,58.5,43.8,30.26,East,89,8.0,15.0,58,0.00,,---,0.00,VWS V14.01,2013-05-04 19:22:00,
2013-05-04 15:25:00,58.4,43.2,30.26,ENE,57,6.0,15.0,57,0.00,,---,0.00,VWS V14.01,2013-05-04 19:25:00,
2013-05-04 15:27:00,58.5,44.2,30.26,SE,145,8.0,10.0,59,0.00,,---,0.00,VWS V14.01,2013-05-04 19:27:00,
2013-05-04 15:30:00,58.9,44.6,30.26,ESE,117,7.0,14.0,59,0.00,,---,0.00,VWS V14.01,2013-05-04 19:30:00,
2013-05-04 15:32:00,59.0,44.7,30.26,SE,132,3.0,8.0,59,0.00,,---,0.00,VWS V14.01,2013-05-04 19:32:00,
2013-05-04 15:35:00,59.0,44.7,30.26,SSE,154,10.0,11.0,59,0.00,,---,0.00,VWS V14.01,2013-05-04 19:35:00,
2013-05-04 15:37:00,58.7,44.4,30.26,SE,144,3.0,14.0,59,0.00,,---,0.00,VWS V14.01,2013-05-04 19:37:00,
2013-05-04 15:40:00,58.6,43.0,30.26,SSE,159,5.0,15.0,56,0.00,,---,0.00,VWS V14.01,2013-05-04 19:40:00,
2013-05-04 15:42:00,58.5,43.3,30.26,ESE,113,8.0,11.0,57,0.00,,---,0.00,VWS V14.01,2013-05-04 19:42:00,
2013-05-04 15:45:00,58.6,43.0,30.26,SE,141,5.0,11.0,56,0.00,,---,0.00,VWS V14.01,2013-05-04 19:45:00,
2013-05-04 15:47:00,58.7,43.1,30.26,South,181,7.0,14.0,56,0.00,,---,0.00,VWS V14.01,2013-05-04 19:47:00,
2013-05-04 15:50:00,58.8,42.2,30.26,ESE,117,8.0,15.0,54,0.00,,---,0.00,VWS V14.01,2013-05-04 19:50:00,
2013-05-04 15:52:00,58.2,42.1,30.26,SE,142,13.0,13.0,55,0.00,,---,0.00,VWS V14.01,2013-05-04 19:52:00,
2013-05-04 15:55:00,58.2,42.6,30.26,SSE,158,5.0,14.0,56,0.00,,---,0.00,VWS V14.01,2013-05-04 19:55:00,
2013-05-04 15:57:00,58.2,43.1,30.26,SE,126,7.0,11.0,57,0.00,,---,0.00,VWS V14.01,2013-05-04 19:57:00,
2013-05-04 16:00:00,58.0,42.4,30.26,East,91,2.0,12.0,56,0.00,,---,0.00,VWS V14.01,2013-05-04 20:00:00,
2013-05-04 16:02:00,58.0,43.3,30.26,East,101,7.0,11.0,58,0.00,,---,0.00,VWS V14.01,2013-05-04 20:02:00,
2013-05-04 16:05:00,57.8,43.1,30.26,East,100,8.0,11.0,58,0.00,,---,0.00,VWS V14.01,2013-05-04 20:05:00,
2013-05-04 16:07:00,57.6,43.4,30.25,SE,131,4.0,11.0,59,0.00,,---,0.00,VWS V14.01,2013-05-04 20:07:00,
2013-05-04 16:10:00,57.7,43.9,30.26,SSE,162,5.0,11.0,60,0.00,,---,0.00,VWS V14.01,2013-05-04 20:10:00,
2013-05-04 16:12:00,58.0,43.8,30.26,East,92,3.0,12.0,59,0.00,,---,0.00,VWS V14.01,2013-05-04 20:12:00,
2013-05-04 16:15:00,57.9,43.7,30.26,East,101,2.0,12.0,59,0.00,,---,0.00,VWS V14.01,2013-05-04 20:15:00,
2013-05-04 16:17:00,57.5,43.7,30.26,ENE,70,6.0,9.0,60,0.00,,---,0.00,VWS V14.01,2013-05-04 20:17:00,
2013-05-04 16:20:00,57.6,44.3,30.26,SE,144,8.0,10.0,61,0.00,,---,0.00,VWS V14.01,2013-05-04 20:20:00,
2013-05-04 16:22:00,57.4,44.1,30.26,SSE,155,3.0,14.0,61,0.00,,---,0.00,VWS V14.01,2013-05-04 20:22:00,
2013-05-04 16:25:00,57.3,45.2,30.26,SSE,152,7.0,14.0,64,0.00,,---,0.00,VWS V14.01,2013-05-04 20:25:00,
2013-05-04 16:27:00,57.4,44.9,30.26,ESE,116,5.0,13.0,63,0.00,,---,0.00,VWS V14.01,2013-05-04 20:27:00,
2013-05-04 16:30:00,57.3,44.4,30.26,East,82,9.0,13.0,62,0.00,,---,0.00,VWS V14.01,2013-05-04 20:30:00,
2013-05-04 16:32:00,57.0,45.0,30.26,ESE,110,8.0,11.0,64,0.00,,---,0.00,VWS V14.01,2013-05-04 20:32:00,
2013-05-04 16:35:00,56.9,44.9,30.26,ENE,58,4.0,12.0,64,0.00,,---,0.00,VWS V14.01,2013-05-04 20:35:00,
2013-05-04 16:37:00,56.8,44.8,30.26,ESE,117,6.0,15.0,64,0.00,,---,0.00,VWS V14.01,2013-05-04 20:37:00,
2013-05-04 16:40:00,56.4,44.4,30.26,East,88,9.0,15.0,64,0.00,,---,0.00,VWS V14.01,2013-05-04 20:40:00,
2013-05-04 16:42:00,56.6,44.6,30.26,NE,47,6.0,11.0,64,0.00,,---,0.00,VWS V14.01,2013-05-04 20:42:00,
2013-05-04 16:45:00,56.4,44.8,30.26,SSE,150,10.0,12.0,65,0.00,,---,0.00,VWS V14.01,2013-05-04 20:45:00,
2013-05-04 16:47:00,56.3,45.1,30.26,South,171,5.0,11.0,66,0.00,,---,0.00,VWS V14.01,2013-05-04 20:47:00,
2013-05-04 16:50:00,56.6,45.4,30.26,ESE,121,10.0,13.0,66,0.00,,---,0.00,VWS V14.01,2013-05-04 20:50:00,
2013-05-04 16:52:00,56.8,44.8,30.26,ESE,120,7.0,12.0,64,0.00,,---,0.00,VWS V14.01,2013-05-04 20:52:00,
2013-05-04 16:55:00,56.6,44.6,30.26,ESE,113,5.0,12.0,64,0.00,,---,0.00,VWS V14.01,2013-05-04 20:55:00,
2013-05-04 16:57:00,56.3,43.9,30.26,ESE,110,8.0,9.0,63,0.00,,---,0.00,VWS V14.01,2013-05-04 20:57:00,
2013-05-04 17:00:00,56.1,44.5,30.25,SE,135,2.0,9.0,65,0.00,,---,0.00,VWS V14.01,2013-05-04 21:00:00,
2013-05-04 17:02:00,56.3,45.1,30.25,East,94,4.0,11.0,66,0.00,,---,0.00,VWS V14.01,2013-05-04 21:02:00,
2013-05-04 17:05:00,56.1,44.5,30.25,SE,125,6.0,11.0,65,0.00,,---,0.00,VWS V14.01,2013-05-04 21:05:00,
2013-05-04 17:07:00,56.0,44.8,30.25,East,101,5.0,9.0,66,0.00,,---,0.00,VWS V14.01,2013-05-04 21:07:00,
2013-05-04 17:10:00,55.7,44.5,30.25,East,87,5.0,10.0,66,0.00,,---,0.00,VWS V14.01,2013-05-04 21:10:00,
2013-05-04 17:12:00,55.8,45.0,30.25,SSE,149,6.0,11.0,67,0.00,,---,0.00,VWS V14.01,2013-05-04 21:12:00,
2013-05-04 17:15:00,55.9,44.7,30.25,East,89,3.0,12.0,66,0.00,,---,0.00,VWS V14.01,2013-05-04 21:15:00,
2013-05-04 17:17:00,56.0,44.8,30.25,SE,143,5.0,10.0,66,0.00,,---,0.00,VWS V14.01,2013-05-04 21:17:00,
2013-05-04 17:20:00,55.8,44.6,30.25,SE,144,7.0,10.0,66,0.00,,---,0.00,VWS V14.01,2013-05-04 21:20:00,
2013-05-04 17:22:00,55.6,44.4,30.25,SE,142,7.0,13.0,66,0.00,,---,0.00,VWS V14.01,2013-05-04 21:22:00,
2013-05-04 17:25:00,55.9,45.1,30.25,SE,135,9.0,13.0,67,0.00,,---,0.00,VWS V14.01,2013-05-04 21:25:00,
2013-05-04 17:27:00,55.8,44.6,30.25,SSE,155,4.0,11.0,66,0.00,,---,0.00,VWS V14.01,2013-05-04 21:27:00,
2013-05-04 17:30:00,55.9,44.7,30.25,SSE,165,5.0,11.0,66,0.00,,---,0.00,VWS V14.01,2013-05-04 21:30:00,
2013-05-04 17:32:00,56.1,44.9,30.25,East,90,5.0,10.0,66,0.00,,---,0.00,VWS V14.01,2013-05-04 21:32:00,
2013-05-04 17:35:00,55.9,44.7,30.25,ESE,109,1.0,10.0,66,0.00,,---,0.00,VWS V14.01,2013-05-04 21:35:00,
2013-05-04 17:37:00,55.9,44.3,30.25,SSE,151,7.0,11.0,65,0.00,,---,0.00,VWS V14.01,2013-05-04 21:37:00,
2013-05-04 17:40:00,55.6,44.0,30.25,SE,125,3.0,11.0,65,0.00,,---,0.00,VWS V14.01,2013-05-04 21:40:00,
2013-05-04 17:42:00,55.5,43.9,30.25,SSE,151,6.0,11.0,65,0.00,,---,0.00,VWS V14.01,2013-05-04 21:42:00,
2013-05-04 17:45:00,55.2,43.7,30.25,SE,138,8.0,11.0,65,0.00,,---,0.00,VWS V14.01,2013-05-04 21:45:00,
2013-05-04 17:47:00,55.0,43.5,30.25,SE,126,6.0,11.0,65,0.00,,---,0.00,VWS V14.01,2013-05-04 21:47:00,
2013-05-04 17:50:00,54.6,43.5,30.25,ENE,71,6.0,11.0,66,0.00,,---,0.00,VWS V14.01,2013-05-04 21:50:00,
2013-05-04 17:52:00,54.4,43.7,30.25,SE,138,8.0,9.0,67,0.00,,---,0.00,VWS V14.01,2013-05-04 21:52:00,
2013-05-04 17:55:00,54.4,43.7,30.25,SE,142,8.0,10.0,67,0.00,,---,0.00,VWS V14.01,2013-05-04 21:55:00,
2013-05-04 17:57:00,54.5,43.4,30.25,East,90,10.0,11.0,66,0.00,,---,0.00,VWS V14.01,2013-05-04 21:57:00,
2013-05-04 18:00:00,54.4,43.3,30.25,East,97,3.0,11.0,66,0.00,,---,0.00,VWS V14.01,2013-05-04 22:00:00,
2013-05-04 18:02:00,54.6,43.5,30.25,SE,134,2.0,6.0,66,0.00,,---,0.00,VWS V14.01,2013-05-04 22:02:00,
2013-05-04 18:05:00,54.5,43.4,30.25,East,90,5.0,13.0,66,0.00,,---,0.00,VWS V14.01,2013-05-04 22:05:00,
2013-05-04 18:07:00,54.6,43.5,30.25,ENE,70,6.0,7.0,66,0.00,,---,0.00,VWS V14.01,2013-05-04 22:07:00,
2013-05-04 18:10:00,54.5,43.4,30.25,SE,124,3.0,9.0,66,0.00,,---,0.00,VWS V14.01,2013-05-04 22:10:00,
2013-05-04 18:12:00,54.5,43.0,30.25,SE,128,7.0,15.0,65,0.00,,---,0.00,VWS V14.01,2013-05-04 22:12:00,
2013-05-04 18:15:00,54.1,42.6,30.25,ESE,112,6.0,15.0,65,0.00,,---,0.00,VWS V14.01,2013-05-04 22:15:00,
2013-05-04 18:17:00,53.9,42.8,30.25,SE,128,4.0,11.0,66,0.00,,---,0.00,VWS V14.01,2013-05-04 22:17:00,
2013-05-04 18:20:00,53.8,42.7,30.25,ESE,104,7.0,13.0,66,0.00,,---,0.00,VWS V14.01,2013-05-04 22:20:00,
2013-05-04 18:22:00,53.5,42.4,30.25,SSE,157,4.0,11.0,66,0.00,,---,0.00,VWS V14.01,2013-05-04 22:22:00,
2013-05-04 18:25:00,53.3,42.2,30.25,SSE,148,5.0,11.0,66,0.00,,---,0.00,VWS V14.01,2013-05-04 22:25:00,
2013-05-04 18:27:00,53.2,42.5,30.25,NE,36,3.0,13.0,67,0.00,,---,0.00,VWS V14.01,2013-05-04 22:27:00,
2013-05-04 18:30:00,53.3,42.6,30.25,East,90,5.0,13.0,67,0.00,,---,0.00,VWS V14.01,2013-05-04 22:30:00,
2013-05-04 18:32:00,53.2,42.9,30.25,ESE,105,3.0,7.0,68,0.00,,---,0.00,VWS V14.01,2013-05-04 22:32:00,
2013-05-04 18:35:00,53.3,43.0,30.25,SE,140,9.0,9.0,68,0.00,,---,0.00,VWS V14.01,2013-05-04 22:35:00,
2013-05-04 18:37:00,53.2,42.9,30.25,SE,140,8.0,11.0,68,0.00,,---,0.00,VWS V14.01,2013-05-04 22:37:00,
2013-05-04 18:40:00,53.0,42.7,30.25,SE,127,5.0,11.0,68,0.00,,---,0.00,VWS V14.01,2013-05-04 22:40:00,
2013-05-04 18:42:00,52.9,43.0,30.25,East,85,5.0,9.0,69,0.00,,---,0.00,VWS V14.01,2013-05-04 22:42:00,
2013-05-04 18:45:00,52.8,42.9,30.25,East,80,6.0,11.0,69,0.00,,---,0.00,VWS V14.01,2013-05-04 22:45:00,
2013-05-04 18:47:00,52.6,43.1,30.25,ESE,119,6.0,11.0,70,0.00,,---,0.00,VWS V14.01,2013-05-04 22:47:00,
2013-05-04 18:50:00,52.5,43.4,30.25,East,101,4.0,11.0,71,0.00,,---,0.00,VWS V14.01,2013-05-04 22:50:00,
2013-05-04 18:52:00,52.4,43.3,30.25,SE,133,5.0,9.0,71,0.00,,---,0.00,VWS V14.01,2013-05-04 22:52:00,
2013-05-04 18:55:00,52.3,43.2,30.25,ESE,122,1.0,10.0,71,0.00,,---,0.00,VWS V14.01,2013-05-04 22:55:00,
2013-05-04 18:57:00,52.2,43.5,30.25,East,97,3.0,9.0,72,0.00,,---,0.00,VWS V14.01,2013-05-04 22:57:00,
2013-05-04 19:00:00,52.2,43.5,30.25,ESE,113,7.0,9.0,72,0.00,,---,0.00,VWS V14.01,2013-05-04 23:00:00,
2013-05-04 19:02:00,52.1,43.7,30.25,SE,140,7.0,10.0,73,0.00,,---,0.00,VWS V14.01,2013-05-04 23:02:00,
2013-05-04 19:05:00,52.1,43.7,30.25,ESE,111,5.0,10.0,73,0.00,,---,0.00,VWS V14.01,2013-05-04 23:05:00,
2013-05-04 19:07:00,52.1,43.7,30.25,SSE,167,6.0,10.0,73,0.00,,---,0.00,VWS V14.01,2013-05-04 23:07:00,
2013-05-04 19:10:00,52.0,43.3,30.25,East,98,5.0,10.0,72,0.00,,---,0.00,VWS V14.01,2013-05-04 23:10:00,
2013-05-04 19:12:00,51.9,43.5,30.25,ESE,123,2.0,8.0,73,0.00,,---,0.00,VWS V14.01,2013-05-04 23:12:00,
2013-05-04 19:15:00,51.8,43.4,30.25,ESE,121,7.0,9.0,73,0.00,,---,0.00,VWS V14.01,2013-05-04 23:15:00,
2013-05-04 19:17:00,51.5,43.5,30.25,SSE,151,4.0,10.0,74,0.00,,---,0.00,VWS V14.01,2013-05-04 23:17:00,
2013-05-04 19:20:00,51.4,43.4,30.25,ESE,107,3.0,10.0,74,0.00,,---,0.00,VWS V14.01,2013-05-04 23:20:00,
2013-05-04 19:22:00,51.5,43.5,30.25,SE,134,4.0,8.0,74,0.00,,---,0.00,VWS V14.01,2013-05-04 23:22:00,
2013-05-04 19:25:00,51.3,43.3,30.25,ESE,121,0.0,8.0,74,0.00,,---,0.00,VWS V14.01,2013-05-04 23:25:00,
2013-05-04 19:27:00,51.2,43.6,30.25,East,96,4.0,5.0,75,0.00,,---,0.00,VWS V14.01,2013-05-04 23:27:00,
2013-05-04 19:30:00,51.2,43.6,30.25,ESE,120,5.0,7.0,75,0.00,,---,0.00,VWS V14.01,2013-05-04 23:30:00,
2013-05-04 19:32:00,51.0,43.7,30.25,East,97,2.0,5.0,76,0.00,,---,0.00,VWS V14.01,2013-05-04 23:32:00,
2013-05-04 19:35:00,51.0,43.7,30.25,East,92,2.0,6.0,76,0.00,,---,0.00,VWS V14.01,2013-05-04 23:35:00,
2013-05-04 19:37:00,51.0,43.7,30.25,ESE,113,3.0,8.0,76,0.00,,---,0.00,VWS V14.01,2013-05-04 23:37:00,
2013-05-04 19:40:00,50.8,43.2,30.25,ESE,106,3.0,9.0,75,0.00,,---,0.00,VWS V14.01,2013-05-04 23:40:00,
2013-05-04 19:42:00,50.7,43.4,30.25,ESE,119,6.0,8.0,76,0.00,,---,0.00,VWS V14.01,2013-05-04 23:42:00,
2013-05-04 19:45:00,50.5,43.2,30.25,East,81,5.0,10.0,76,0.00,,---,0.00,VWS V14.01,2013-05-04 23:45:00,
2013-05-04 19:47:00,50.4,43.1,30.25,ESE,105,8.0,10.0,76,0.00,,---,0.00,VWS V14.01,2013-05-04 23:47:00,
2013-05-04 19:50:00,50.3,43.0,30.25,SSE,156,5.0,10.0,76,0.00,,---,0.00,VWS V14.01,2013-05-04 23:50:00,
2013-05-04 19:52:00,50.2,42.9,30.25,ESE,123,9.0,9.0,76,0.00,,---,0.00,VWS V14.01,2013-05-04 23:52:00,
2013-05-04 19:55:00,50.1,42.8,30.25,SSE,148,1.0,10.0,76,0.00,,---,0.00,VWS V14.01,2013-05-04 23:55:00,
2013-05-04 19:57:00,50.0,43.1,30.25,ESE,103,4.0,8.0,77,0.00,,---,0.00,VWS V14.01,2013-05-04 23:57:00,
2013-05-04 20:00:00,49.9,43.3,30.25,East,84,5.0,8.0,78,0.00,,---,0.00,VWS V14.01,2013-05-05 00:00:00,
2013-05-04 20:02:00,49.9,43.3,30.25,ESE,111,3.0,9.0,78,0.00,,---,0.00,VWS V14.01,2013-05-05 00:02:00,
2013-05-04 20:05:00,49.8,43.2,30.25,ESE,102,5.0,9.0,78,0.00,,---,0.00,VWS V14.01,2013-05-05 00:05:00,
2013-05-04 20:07:00,49.8,43.2,30.25,East,99,4.0,9.0,78,0.00,,---,0.00,VWS V14.01,2013-05-05 00:07:00,
2013-05-04 20:10:00,49.7,43.1,30.25,East,87,3.0,9.0,78,0.00,,---,0.00,VWS V14.01,2013-05-05 00:10:00,
2013-05-04 20:12:00,49.7,43.5,30.25,East,92,10.0,11.0,79,0.00,,---,0.00,VWS V14.01,2013-05-05 00:12:00,
2013-05-04 20:15:00,49.6,43.0,30.25,East,81,2.0,11.0,78,0.00,,---,0.00,VWS V14.01,2013-05-05 00:15:00,
2013-05-04 20:17:00,49.6,43.0,30.25,East,100,2.0,7.0,78,0.00,,---,0.00,VWS V14.01,2013-05-05 00:17:00,
2013-05-04 20:20:00,49.5,42.9,30.25,ESE,107,3.0,7.0,78,0.00,,---,0.00,VWS V14.01,2013-05-05 00:20:00,
2013-05-04 20:22:00,49.4,42.8,30.25,ESE,110,2.0,8.0,78,0.00,,---,0.00,VWS V14.01,2013-05-05 00:22:00,
2013-05-04 20:25:00,49.4,43.2,30.25,ESE,107,2.0,8.0,79,0.00,,---,0.00,VWS V14.01,2013-05-05 00:25:00,
2013-05-04 20:27:00,49.3,43.1,30.25,ESE,105,2.0,5.0,79,0.00,,---,0.00,VWS V14.01,2013-05-05 00:27:00,
2013-05-04 20:30:00,49.2,43.0,30.25,ESE,102,3.0,6.0,79,0.00,,---,0.00,VWS V14.01,2013-05-05 00:30:00,
2013-05-04 20:31:00,49.2,43.0,30.25,East,97,2.0,9.0,79,0.00,,---,0.00,VWS V14.01,2013-05-05 00:31:00,
2013-05-04 20:35:00,49.2,43.0,30.25,East,95,2.0,9.0,79,0.00,,---,0.00,VWS V14.01,2013-05-05 00:35:00,
2013-05-04 20:36:00,49.2,43.0,30.25,East,86,2.0,5.0,79,0.00,,---,0.00,VWS V14.01,2013-05-05 00:36:00,
2013-05-04 20:40:00,49.1,42.9,30.25,ESE,115,1.0,9.0,79,0.00,,---,0.00,VWS V14.01,2013-05-05 00:40:00,
2013-05-04 20:41:00,49.0,42.8,30.25,East,98,3.0,6.0,79,0.00,,---,0.00,VWS V14.01,2013-05-05 00:41:00,
2013-05-04 20:45:00,49.0,42.8,30.25,East,92,0.0,6.0,79,0.00,,---,0.00,VWS V14.01,2013-05-05 00:45:00,
2013-05-04 20:46:00,49.0,42.8,30.25,ESE,111,7.0,9.0,79,0.00,,---,0.00,VWS V14.01,2013-05-05 00:46:00,
2013-05-04 20:50:00,48.9,42.7,30.25,ESE,102,2.0,9.0,79,0.00,,---,0.00,VWS V14.01,2013-05-05 00:50:00,
2013-05-04 20:51:00,48.8,42.6,30.25,East,88,4.0,5.0,79,0.00,,---,0.00,VWS V14.01,2013-05-05 00:51:00,
2013-05-04 20:55:00,48.8,42.6,30.25,East,83,5.0,10.0,79,0.00,,---,0.00,VWS V14.01,2013-05-05 00:55:00,
2013-05-04 20:56:00,48.8,42.6,30.25,NE,54,3.0,5.0,79,0.00,,---,0.00,VWS V14.01,2013-05-05 00:56:00,
2013-05-04 21:00:00,48.8,42.6,30.26,East,82,3.0,5.0,79,0.00,,---,0.00,VWS V14.01,2013-05-05 01:00:00,
2013-05-04 21:01:00,48.8,42.6,30.25,East,94,3.0,11.0,79,0.00,,---,0.00,VWS V14.01,2013-05-05 01:01:00,
2013-05-04 21:05:00,48.8,42.3,30.26,East,89,2.0,11.0,78,0.00,,---,0.00,VWS V14.01,2013-05-05 01:05:00,
2013-05-04 21:06:00,48.8,42.3,30.26,ESE,108,9.0,9.0,78,0.00,,---,0.00,VWS V14.01,2013-05-05 01:06:00,
2013-05-04 21:10:00,48.8,42.3,30.26,East,99,3.0,9.0,78,0.00,,---,0.00,VWS V14.01,2013-05-05 01:10:00,
2013-05-04 21:11:00,48.8,42.3,30.26,ESE,114,8.0,8.0,78,0.00,,---,0.00,VWS V14.01,2013-05-05 01:11:00,
2013-05-04 21:15:00,48.8,42.6,30.26,ENE,76,4.0,8.0,79,0.00,,---,0.00,VWS V14.01,2013-05-05 01:15:00,
2013-05-04 21:16:00,48.8,42.6,30.26,ENE,76,3.0,4.0,79,0.00,,---,0.00,VWS V14.01,2013-05-05 01:16:00,
2013-05-04 21:20:00,48.7,42.5,30.26,ENE,72,3.0,6.0,79,0.00,,---,0.00,VWS V14.01,2013-05-05 01:20:00,
2013-05-04 21:21:00,48.7,42.5,30.26,ENE,72,0.0,3.0,79,0.00,,---,0.00,VWS V14.01,2013-05-05 01:21:00,
2013-05-04 21:25:00,48.7,42.5,30.26,SE,126,6.0,8.0,79,0.00,,---,0.00,VWS V14.01,2013-05-05 01:25:00,
2013-05-04 21:26:00,48.6,42.4,30.26,East,101,1.0,8.0,79,0.00,,---,0.00,VWS V14.01,2013-05-05 01:26:00,
2013-05-04 21:30:00,48.6,42.7,30.26,East,87,1.0,8.0,80,0.00,,---,0.00,VWS V14.01,2013-05-05 01:30:00,
2013-05-04 21:31:00,48.6,42.7,30.26,East,87,0.0,3.0,80,0.00,,---,0.00,VWS V14.01,2013-05-05 01:31:00,
2013-05-04 21:35:00,48.5,42.6,30.26,East,92,5.0,5.0,80,0.00,,---,0.00,VWS V14.01,2013-05-05 01:35:00,
2013-05-04 21:36:00,48.5,42.6,30.26,ENE,76,2.0,5.0,80,0.00,,---,0.00,VWS V14.01,2013-05-05 01:36:00,
2013-05-04 21:40:00,48.5,42.6,30.26,East,86,3.0,8.0,80,0.00,,---,0.00,VWS V14.01,2013-05-05 01:40:00,
2013-05-04 21:41:00,48.4,42.5,30.26,East,96,4.0,4.0,80,0.00,,---,0.00,VWS V14.01,2013-05-05 01:41:00,
2013-05-04 21:45:00,48.4,42.5,30.26,East,84,4.0,5.0,80,0.00,,---,0.00,VWS V14.01,2013-05-05 01:45:00,
2013-05-04 21:46:00,48.3,42.4,30.26,East,93,4.0,6.0,80,0.00,,---,0.00,VWS V14.01,2013-05-05 01:46:00,
2013-05-04 21:50:00,48.3,42.4,30.26,ENE,71,2.0,7.0,80,0.00,,---,0.00,VWS V14.01,2013-05-05 01:50:00,
2013-05-04 21:51:00,48.3,42.4,30.26,East,101,4.0,10.0,80,0.00,,---,0.00,VWS V14.01,2013-05-05 01:51:00,
2013-05-04 21:55:00,48.2,42.3,30.27,ESE,112,2.0,10.0,80,0.00,,---,0.00,VWS V14.01,2013-05-05 01:55:00,
2013-05-04 21:56:00,48.2,42.3,30.26,ENE,71,4.0,5.0,80,0.00,,---,0.00,VWS V14.01,2013-05-05 01:56:00,
2013-05-04 22:00:00,48.2,42.3,30.27,ENE,67,4.0,5.0,80,0.00,,---,0.00,VWS V14.01,2013-05-05 02:00:00,
2013-05-04 22:01:00,48.2,42.3,30.27,East,81,4.0,7.0,80,0.00,,---,0.00,VWS V14.01,2013-05-05 02:01:00,
2013-05-04 22:05:00,48.1,42.2,30.27,ENE,72,1.0,7.0,80,0.00,,---,0.00,VWS V14.01,2013-05-05 02:05:00,
2013-05-04 22:06:00,48.1,42.2,30.27,ENE,72,2.0,4.0,80,0.00,,---,0.00,VWS V14.01,2013-05-05 02:06:00,
2013-05-04 22:10:00,48.1,42.2,30.26,East,86,3.0,11.0,80,0.00,,---,0.00,VWS V14.01,2013-05-05 02:10:00,
2013-05-04 22:11:00,48.1,42.2,30.27,East,92,1.0,5.0,80,0.00,,---,0.00,VWS V14.01,2013-05-05 02:11:00,
2013-05-04 22:15:00,48.0,42.1,30.27,ESE,106,6.0,8.0,80,0.00,,---,0.00,VWS V14.01,2013-05-05 02:15:00,
2013-05-04 22:16:00,48.0,42.1,30.27,ESE,120,0.0,6.0,80,0.00,,---,0.00,VWS V14.01,2013-05-05 02:16:00,
2013-05-04 22:20:00,47.9,42.0,30.27,East,96,5.0,6.0,80,0.00,,---,0.00,VWS V14.01,2013-05-05 02:20:00,
2013-05-04 22:21:00,47.9,42.0,30.27,East,95,2.0,5.0,80,0.00,,---,0.00,VWS V14.01,2013-05-05 02:21:00,
2013-05-04 22:25:00,47.9,42.0,30.27,ESE,105,5.0,5.0,80,0.00,,---,0.00,VWS V14.01,2013-05-05 02:25:00,
2013-05-04 22:26:00,47.9,42.0,30.27,East,88,3.0,5.0,80,0.00,,---,0.00,VWS V14.01,2013-05-05 02:26:00,
2013-05-04 22:30:00,47.8,41.9,30.27,East,99,7.0,7.0,80,0.00,,---,0.00,VWS V14.01,2013-05-05 02:30:00,
2013-05-04 22:31:00,47.8,42.3,30.27,East,80,2.0,7.0,81,0.00,,---,0.00,VWS V14.01,2013-05-05 02:31:00,
2013-05-04 22:35:00,47.8,42.3,30.27,ESE,117,3.0,7.0,81,0.00,,---,0.00,VWS V14.01,2013-05-05 02:35:00,
2013-05-04 22:36:00,47.8,42.3,30.27,East,100,4.0,6.0,81,0.00,,---,0.00,VWS V14.01,2013-05-05 02:36:00,
2013-05-04 22:40:00,47.8,42.3,30.27,East,88,5.0,9.0,81,0.00,,---,0.00,VWS V14.01,2013-05-05 02:40:00,
2013-05-04 22:41:00,47.8,42.3,30.27,SE,126,5.0,7.0,81,0.00,,---,0.00,VWS V14.01,2013-05-05 02:41:00,
2013-05-04 22:45:00,47.7,42.2,30.27,East,88,7.0,7.0,81,0.00,,---,0.00,VWS V14.01,2013-05-05 02:45:00,
2013-05-04 22:46:00,47.7,41.8,30.27,East,86,3.0,8.0,80,0.00,,---,0.00,VWS V14.01,2013-05-05 02:46:00,
2013-05-04 22:50:00,47.7,41.8,30.27,East,96,3.0,8.0,80,0.00,,---,0.00,VWS V14.01,2013-05-05 02:50:00,
2013-05-04 22:51:00,47.6,41.8,30.27,East,82,4.0,9.0,80,0.00,,---,0.00,VWS V14.01,2013-05-05 02:51:00,
2013-05-04 22:55:00,47.7,41.8,30.27,East,80,2.0,9.0,80,0.00,,---,0.00,VWS V14.01,2013-05-05 02:55:00,
2013-05-04 22:56:00,47.6,41.8,30.27,East,94,2.0,3.0,80,0.00,,---,0.00,VWS V14.01,2013-05-05 02:56:00,
2013-05-04 23:00:00,47.6,41.7,30.27,East,94,8.0,9.0,80,0.00,,---,0.00,VWS V14.01,2013-05-05 03:00:00,
2013-05-04 23:01:00,47.6,41.8,30.27,ENE,64,1.0,8.0,80,0.00,,---,0.00,VWS V14.01,2013-05-05 03:01:00,
2013-05-04 23:05:00,47.6,41.7,30.27,East,96,2.0,8.0,80,0.00,,---,0.00,VWS V14.01,2013-05-05 03:05:00,
2013-05-04 23:06:00,47.6,41.8,30.27,ESE,105,3.0,3.0,80,0.00,,---,0.00,VWS V14.01,2013-05-05 03:06:00,
2013-05-04 23:10:00,47.5,42.0,30.27,East,85,2.0,8.0,81,0.00,,---,0.00,VWS V14.01,2013-05-05 03:10:00,
2013-05-04 23:11:00,47.5,42.0,30.27,ESE,105,2.0,5.0,81,0.00,,---,0.00,VWS V14.01,2013-05-05 03:11:00,
2013-05-04 23:15:00,47.4,41.9,30.27,East,91,1.0,5.0,81,0.00,,---,0.00,VWS V14.01,2013-05-05 03:15:00,
2013-05-04 23:16:00,47.4,41.9,30.27,ENE,64,0.0,5.0,81,0.00,,---,0.00,VWS V14.01,2013-05-05 03:16:00,
2013-05-04 23:20:00,47.3,41.8,30.27,ENE,76,4.0,7.0,81,0.00,,---,0.00,VWS V14.01,2013-05-05 03:20:00,
2013-05-04 23:21:00,47.3,41.8,30.27,East,84,3.0,5.0,81,0.00,,---,0.00,VWS V14.01,2013-05-05 03:21:00,
2013-05-04 23:25:00,47.2,41.7,30.27,East,86,5.0,7.0,81,0.00,,---,0.00,VWS V14.01,2013-05-05 03:25:00,
2013-05-04 23:26:00,47.2,41.7,30.27,East,89,3.0,6.0,81,0.00,,---,0.00,VWS V14.01,2013-05-05 03:26:00,
2013-05-04 23:30:00,47.2,41.7,30.26,East,81,2.0,6.0,81,0.00,,---,0.00,VWS V14.01,2013-05-05 03:30:00,
2013-05-04 23:31:00,47.1,41.6,30.27,East,84,1.0,5.0,81,0.00,,---,0.00,VWS V14.01,2013-05-05 03:31:00,
2013-05-04 23:35:00,47.0,41.5,30.27,East,82,3.0,5.0,81,0.00,,---,0.00,VWS V14.01,2013-05-05 03:35:00,
2013-05-04 23:36:00,47.0,41.5,30.27,East,83,1.0,3.0,81,0.00,,---,0.00,VWS V14.01,2013-05-05 03:36:00,
2013-05-04 23:40:00,47.0,41.5,30.27,East,99,1.0,5.0,81,0.00,,---,0.00,VWS V14.01,2013-05-05 03:40:00,
2013-05-04 23:41:00,46.9,41.4,30.27,East,99,0.0,3.0,81,0.00,,---,0.00,VWS V14.01,2013-05-05 03:41:00,
2013-05-04 23:45:00,46.9,41.4,30.26,ENE,64,5.0,8.0,81,0.00,,---,0.00,VWS V14.01,2013-05-05 03:45:00,
2013-05-04 23:46:00,46.9,41.4,30.26,East,86,2.0,7.0,81,0.00,,---,0.00,VWS V14.01,2013-05-05 03:46:00,
2013-05-04 23:50:00,46.9,41.4,30.27,East,87,4.0,7.0,81,0.00,,---,0.00,VWS V14.01,2013-05-05 03:50:00,
2013-05-04 23:51:00,46.9,41.4,30.27,ENE,73,3.0,4.0,81,0.00,,---,0.00,VWS V14.01,2013-05-05 03:51:00,
2013-05-04 23:55:00,46.9,41.7,30.27,ENE,73,2.0,4.0,82,0.00,,---,0.00,VWS V14.01,2013-05-05 03:55:00,
2013-05-04 23:56:00,46.8,41.6,30.27,ENE,73,1.0,3.0,82,0.00,,---,0.00,VWS V14.01,2013-05-05 03:56:00,